• In Hungary
  • List of Countries
  • For 7 days
  • Water Temperature
  • Satellite Maps
  • Weather Map
  • News
  • Weather Widgets
  • user-avatar
    Login

    Hourly Weather Edva

    Today, 25 May, Friday

    Time Temperature Precipitation Wind Pressure Humidity
    00:00 +1°C° 0 mm 3 mps 751 mmHg 65%
    01:00 +1°C° 0 mm 3 mps 751 mmHg 68%
    02:00 0°C° 0 mm 3 mps 751 mmHg 71%
    03:00 0°C° 0 mm 3 mps 751 mmHg 74%
    04:00 +1°C° 0 mm 3 mps 751 mmHg 69%
    05:00 +1°C° 0 mm 3 mps 752 mmHg 64%
    06:00 +1°C° 0 mm 4 mps 752 mmHg 59%
    07:00 +3°C° 0 mm 4 mps 752 mmHg 54%
    08:00 +4°C° 0 mm 4 mps 752 mmHg 49%
    09:00 +4°C° 0 mm 4 mps 753 mmHg 45%
    10:00 +5°C° 0 mm 4 mps 753 mmHg 41%
    11:00 +6°C° 0 mm 4 mps 753 mmHg 38%
    12:00 +7°C° 0 mm 4 mps 753 mmHg 34%
    13:00 +8°C° 0 mm 4 mps 753 mmHg 33%
    14:00 +10°C° 0 mm 4 mps 753 mmHg 32%
    15:00 +10°C° 0 mm 4 mps 753 mmHg 30%
    16:00 +10°C° 0 mm 3 mps 753 mmHg 32%
    17:00 +10°C° 0 mm 3 mps 753 mmHg 33%
    18:00 +10°C° 0 mm 3 mps 753 mmHg 35%
    19:00 +9°C° 0 mm 2 mps 753 mmHg 42%
    20:00 +7°C° 0 mm 2 mps 753 mmHg 49%
    21:00 +6°C° 0 mm 1 mps 753 mmHg 56%
    22:00 +6°C° 0 mm 1 mps 753 mmHg 59%
    23:00 +5°C° 0 mm 2 mps 753 mmHg 61%

    Tomorrow, 26 May, Saturday

    Time Temperature Precipitation Wind Pressure Humidity
    00:00 +5°C° 0 mm 2 mps 753 mmHg 64%
    01:00 +5°C° 0 mm 2 mps 753 mmHg 63%
    02:00 +5°C° 0 mm 2 mps 753 mmHg 63%
    03:00 +5°C° 0 mm 2 mps 753 mmHg 62%
    04:00 +7°C° 0 mm 3 mps 753 mmHg 58%
    05:00 +8°C° 0 mm 3 mps 753 mmHg 54%
    06:00 +9°C° 0 mm 3 mps 753 mmHg 49%
    07:00 +11°C° 0 mm 3 mps 752 mmHg 46%
    08:00 +13°C° 0 mm 3 mps 752 mmHg 43%
    09:00 +14°C° 0 mm 4 mps 751 mmHg 40%
    10:00 +17°C° 0 mm 4 mps 751 mmHg 37%
    11:00 +18°C° 0 mm 4 mps 750 mmHg 34%
    12:00 +19°C° 0 mm 4 mps 750 mmHg 32%
    13:00 +20°C° 0 mm 4 mps 749 mmHg 32%
    14:00 +21°C° 0 mm 4 mps 748 mmHg 32%
    15:00 +21°C° 0 mm 4 mps 747 mmHg 33%
    16:00 +21°C° 0 mm 4 mps 747 mmHg 37%
    17:00 +20°C° 0 mm 3 mps 746 mmHg 41%
    18:00 +19°C° 0 mm 3 mps 745 mmHg 45%
    19:00 +18°C° 0 mm 3 mps 745 mmHg 47%
    20:00 +18°C° 0 mm 4 mps 745 mmHg 49%
    21:00 +17°C° 0 mm 4 mps 745 mmHg 50%
    22:00 +14°C° 0 mm 4 mps 745 mmHg 56%
    23:00 +11°C° 0 mm 3 mps 745 mmHg 61%

    Day after tomorrow, 27 May, Sunday

    Time Temperature Precipitation Wind Pressure Humidity
    00:00 +8°C° 0 mm 2 mps 746 mmHg 66%
    01:00 +8°C° 0 mm 2 mps 746 mmHg 66%
    02:00 +7°C° 0 mm 2 mps 746 mmHg 67%
    03:00 +8°C° 0 mm 1 mps 746 mmHg 67%
    04:00 +9°C° 0 mm 1 mps 746 mmHg 63%
    05:00 +8°C° 0 mm 2 mps 746 mmHg 58%
    06:00 +9°C° 0 mm 2 mps 746 mmHg 54%
    07:00 +10°C° 0 mm 3 mps 745 mmHg 50%
    08:00 +11°C° 0 mm 4 mps 745 mmHg 46%
    09:00 +10°C° 0 mm 5 mps 745 mmHg 42%
    10:00 +10°C° 0 mm 5 mps 745 mmHg 40%
    11:00 +10°C° 0 mm 6 mps 744 mmHg 38%
    12:00 +11°C° 0 mm 6 mps 744 mmHg 36%
    13:00 +10°C° 0.1 mm 6 mps 745 mmHg 38%
    14:00 +10°C° 0.1 mm 6 mps 745 mmHg 41%
    15:00 +9°C° 0.1 mm 6 mps 745 mmHg 43%
    16:00 +9°C° 0 mm 6 mps 745 mmHg 41%
    17:00 +8°C° 0 mm 6 mps 745 mmHg 40%
    18:00 +8°C° 0 mm 7 mps 746 mmHg 38%
    19:00 +5°C° 0 mm 6 mps 746 mmHg 42%
    20:00 +5°C° 0 mm 5 mps 746 mmHg 46%
    21:00 +3°C° 0 mm 5 mps 746 mmHg 50%
    22:00 +2°C° 0 mm 5 mps 747 mmHg 53%
    23:00 +1°C° 0 mm 5 mps 747 mmHg 56%

    28 May, Monday

    Time Temperature Precipitation Wind Pressure Humidity
    00:00 +1°C° 0 mm 5 mps 747 mmHg 60%
    01:00 0°C° 0 mm 5 mps 747 mmHg 61%
    02:00 0°C° 0 mm 5 mps 747 mmHg 63%
    03:00 0°C° 0 mm 5 mps 748 mmHg 65%
    04:00 0°C° 0 mm 5 mps 748 mmHg 63%
    05:00 -1°C° 0 mm 6 mps 748 mmHg 61%
    06:00 +1°C° 0 mm 6 mps 748 mmHg 58%
    07:00 +1°C° 0 mm 6 mps 749 mmHg 56%
    08:00 +2°C° 0 mm 6 mps 749 mmHg 54%
    09:00 +2°C° 0 mm 5 mps 749 mmHg 52%
    10:00 +3°C° 0 mm 5 mps 750 mmHg 49%
    11:00 +5°C° 0 mm 5 mps 750 mmHg 46%
    12:00 +6°C° 0 mm 5 mps 750 mmHg 43%
    13:00 +7°C° 0 mm 5 mps 750 mmHg 40%
    14:00 +8°C° 0 mm 5 mps 750 mmHg 37%
    15:00 +9°C° 0 mm 5 mps 749 mmHg 34%
    16:00 +9°C° 0 mm 5 mps 749 mmHg 37%
    17:00 +10°C° 0 mm 4 mps 749 mmHg 40%
    18:00 +8°C° 0 mm 4 mps 749 mmHg 43%
    19:00 +8°C° 0 mm 3 mps 749 mmHg 49%
    20:00 +7°C° 0 mm 3 mps 749 mmHg 55%
    21:00 +6°C° 0 mm 2 mps 749 mmHg 62%
    22:00 +5°C° 0 mm 2 mps 749 mmHg 66%
    23:00 +4°C° 0 mm 2 mps 749 mmHg 70%

    29 May, Tuesday

    Time Temperature Precipitation Wind Pressure Humidity
    00:00 +4°C° 0 mm 1 mps 750 mmHg 74%
    01:00 +3°C° 0 mm 1 mps 750 mmHg 75%
    02:00 +3°C° 0 mm 1 mps 750 mmHg 76%
    03:00 +2°C° 0 mm 1 mps 750 mmHg 76%
    04:00 +4°C° 0 mm 1 mps 751 mmHg 69%
    05:00 +4°C° 0 mm 2 mps 751 mmHg 61%
    06:00 +5°C° 0 mm 2 mps 751 mmHg 54%
    07:00 +7°C° 0 mm 2 mps 751 mmHg 50%
    08:00 +8°C° 0 mm 3 mps 751 mmHg 46%
    09:00 +9°C° 0 mm 3 mps 751 mmHg 42%
    10:00 +10°C° 0 mm 3 mps 750 mmHg 42%
    11:00 +10°C° 0 mm 3 mps 750 mmHg 43%
    12:00 +11°C° 0 mm 3 mps 749 mmHg 44%
    13:00 +12°C° 0 mm 3 mps 749 mmHg 44%
    14:00 +12°C° 0 mm 3 mps 748 mmHg 43%
    15:00 +14°C° 0 mm 2 mps 748 mmHg 43%
    16:00 +14°C° 0 mm 2 mps 747 mmHg 43%
    17:00 +14°C° 0 mm 2 mps 746 mmHg 44%
    18:00 +14°C° 0 mm 1 mps 745 mmHg 44%
    19:00 +13°C° 0.5 mm 2 mps 744 mmHg 57%
    20:00 +10°C° 0.5 mm 2 mps 743 mmHg 69%
    21:00 +8°C° 0.5 mm 2 mps 742 mmHg 81%
    22:00 +8°C° 0.8 mm 2 mps 741 mmHg 85%
    23:00 +8°C° 0.8 mm 3 mps 740 mmHg 89%

    30 May, Wednesday

    Time Temperature Precipitation Wind Pressure Humidity
    00:00 +8°C° 0.8 mm 3 mps 738 mmHg 92%
    01:00 +8°C° 0.3 mm 4 mps 737 mmHg 93%
    02:00 +8°C° 0.3 mm 4 mps 737 mmHg 93%
    03:00 +8°C° 0.3 mm 4 mps 736 mmHg 94%
    04:00 +7°C° 0.1 mm 4 mps 735 mmHg 90%
    05:00 +7°C° 0.1 mm 5 mps 734 mmHg 87%
    06:00 +6°C° 0.1 mm 5 mps 734 mmHg 83%
    07:00 +6°C° 0.2 mm 5 mps 733 mmHg 83%
    08:00 +6°C° 0.2 mm 5 mps 733 mmHg 82%
    09:00 +6°C° 0.2 mm 5 mps 733 mmHg 82%
    10:00 +6°C° 0.3 mm 5 mps 733 mmHg 82%
    11:00 +6°C° 0.3 mm 5 mps 733 mmHg 82%
    12:00 +6°C° 0.3 mm 5 mps 733 mmHg 82%
    13:00 +7°C° 0.1 mm 5 mps 734 mmHg 81%
    14:00 +7°C° 0.1 mm 5 mps 735 mmHg 80%
    15:00 +7°C° 0.1 mm 5 mps 735 mmHg 79%
    16:00 +7°C° 0.1 mm 5 mps 736 mmHg 77%
    17:00 +6°C° 0.1 mm 5 mps 736 mmHg 76%
    18:00 +6°C° 0.1 mm 5 mps 737 mmHg 75%
    19:00 +6°C° 0 mm 4 mps 738 mmHg 76%
    20:00 +5°C° 0 mm 4 mps 738 mmHg 76%
    21:00 +5°C° 0 mm 3 mps 739 mmHg 77%
    22:00 +4°C° 0 mm 3 mps 739 mmHg 78%
    23:00 +3°C° 0 mm 3 mps 740 mmHg 79%
    Show more